Cosmos 1602 Rocket - Orbit

View from above orbital plane
View from above orbital plane
View from above satellite
View from above satellite

Ground track
Ground track

The orbit data is extracted from the following two-line orbital elements,

1 15332U 84105B   13140.54398505  .00000335  00000-0  38855-4 0  3325
2 15332 082.5335 138.7717 0020470 233.0883 247.4479 14.82371956545968
Epoch (UTC): 20 May 2013 13:03:20
Eccentricity: 0.0020470
inclination: 82.5335°
perigee height: 607 km
apogee height: 636 km
right ascension of ascending node: 138.7717°
argument of perigee: 233.0883°
revolutions per day: 14.82371956
mean anomaly at epoch: 247.4479°
orbit number at epoch: 54596

The dashed part of the orbit path shows where the satellite is in the earth's shadow,  

Developed and maintained by Chris Peat, Heavens-Above GmbH. Please read the updated FAQ before sending e-mail. Imprint. DLR